Location: ??????
(38.3184°N, 23.6932°E)
Time: 02:10:31
(UTC+00:00)

ATLAS 5 CENTAUR R/B - Pass Details

Date: 16 October 2021
Orbit: 497 x 1159 km, 63.4° (Epoch: 25 November)

Event Time Altitude Azimuth Distance (km) Brightness Sun altitude
Rises 18:41:40 0° 267° (W) 2,619 5.7 -35.0°
Reaches altitude 10° 18:45:07 10° 301° (WNW) 1,808 4.7 -35.6°
Enters shadow 18:46:05 12° 315° (NW) 1,739 4.5 -35.8°
